When you browse on this site, cookies collect data to enhance your experience and personalize the content and advertising you see.
Visit our Privacy Policy to learn more. By continuing to use the site, you agree to this use of cookies and data.
  • In Sweden
  • List of Countries
  • For 7 days
  • Water Temperature
  • Satellite Maps
  • Weather Map
  • Weather Widgets
  • user-avatar
    Login

    Hourly Weather Khulna

    Today, 20 January, Sunday

    Time Temperature Precipitation Wind Pressure Humidity
    00:00 +20°C° 0 mm 1 mps 761 mmHg 45%
    01:00 +20°C° 0 mm 1 mps 761 mmHg 46%
    02:00 +18°C° 0 mm 2 mps 761 mmHg 47%
    03:00 +18°C° 0 mm 2 mps 761 mmHg 48%
    04:00 +18°C° 0 mm 2 mps 761 mmHg 50%
    05:00 +18°C° 0 mm 1 mps 761 mmHg 51%
    06:00 +18°C° 0 mm 1 mps 761 mmHg 57%
    07:00 +19°C° 0 mm 1 mps 762 mmHg 52%
    08:00 +21°C° 0 mm 1 mps 762 mmHg 47%
    09:00 +23°C° 0 mm 1 mps 763 mmHg 43%
    10:00 +25°C° 0 mm 1 mps 762 mmHg 38%
    11:00 +26°C° 0 mm 2 mps 762 mmHg 33%
    12:00 +27°C° 0 mm 2 mps 762 mmHg 30%
    13:00 +28°C° 0 mm 2 mps 762 mmHg 28%
    14:00 +28°C° 0 mm 2 mps 761 mmHg 27%
    15:00 +29°C° 0 mm 3 mps 760 mmHg 25%
    16:00 +28°C° 0 mm 2 mps 760 mmHg 28%
    17:00 +26°C° 0 mm 2 mps 760 mmHg 31%
    18:00 +25°C° 0 mm 1 mps 760 mmHg 34%
    19:00 +24°C° 0 mm 1 mps 761 mmHg 37%
    20:00 +23°C° 0 mm 1 mps 761 mmHg 39%
    21:00 +22°C° 0 mm 1 mps 761 mmHg 41%
    22:00 +22°C° 0 mm 1 mps 761 mmHg 42%
    23:00 +21°C° 0 mm 1 mps 761 mmHg 44%

    Tomorrow, 21 January, Monday

    Time Temperature Precipitation Wind Pressure Humidity
    00:00 +21°C° 0 mm 1 mps 761 mmHg 45%
    01:00 +20°C° 0 mm 1 mps 761 mmHg 46%
    02:00 +20°C° 0 mm 1 mps 761 mmHg 47%
    03:00 +20°C° 0 mm 1 mps 761 mmHg 48%
    04:00 +19°C° 0 mm 1 mps 761 mmHg 49%
    05:00 +19°C° 0 mm 1 mps 761 mmHg 50%
    06:00 +19°C° 0 mm 1 mps 761 mmHg 50%
    07:00 +21°C° 0 mm 1 mps 762 mmHg 46%
    08:00 +22°C° 0 mm 1 mps 762 mmHg 42%
    09:00 +24°C° 0 mm 2 mps 763 mmHg 39%
    10:00 +26°C° 0 mm 2 mps 763 mmHg 35%
    11:00 +27°C° 0 mm 2 mps 762 mmHg 31%
    12:00 +29°C° 0 mm 2 mps 762 mmHg 28%
    13:00 +29°C° 0 mm 2 mps 761 mmHg 27%
    14:00 +30°C° 0 mm 2 mps 761 mmHg 26%
    15:00 +30°C° 0 mm 2 mps 760 mmHg 24%
    16:00 +29°C° 0 mm 2 mps 760 mmHg 27%
    17:00 +27°C° 0 mm 2 mps 760 mmHg 31%
    18:00 +26°C° 0 mm 1 mps 760 mmHg 34%
    19:00 +25°C° 0 mm 1 mps 760 mmHg 36%
    20:00 +24°C° 0 mm 1 mps 761 mmHg 38%
    21:00 +23°C° 0 mm 1 mps 761 mmHg 41%
    22:00 +23°C° 0 mm 1 mps 761 mmHg 43%
    23:00 +22°C° 0 mm 1 mps 761 mmHg 44%

    Day after tomorrow, 22 January, Tuesday

    Time Temperature Precipitation Wind Pressure Humidity
    00:00 +22°C° 0 mm 1 mps 761 mmHg 46%
    01:00 +21°C° 0 mm 1 mps 760 mmHg 48%
    02:00 +21°C° 0 mm 1 mps 760 mmHg 49%
    03:00 +20°C° 0 mm 1 mps 760 mmHg 51%
    04:00 +20°C° 0 mm 1 mps 760 mmHg 53%
    05:00 +19°C° 0 mm 1 mps 760 mmHg 54%
    06:00 +19°C° 0 mm 1 mps 761 mmHg 56%
    07:00 +21°C° 0 mm 1 mps 761 mmHg 52%
    08:00 +23°C° 0 mm 1 mps 762 mmHg 48%
    09:00 +25°C° 0 mm 1 mps 763 mmHg 44%
    10:00 +26°C° 0 mm 1 mps 762 mmHg 39%
    11:00 +28°C° 0 mm 1 mps 762 mmHg 34%
    12:00 +30°C° 0 mm 1 mps 762 mmHg 29%
    13:00 +30°C° 0 mm 2 mps 761 mmHg 27%
    14:00 +31°C° 0 mm 2 mps 760 mmHg 25%
    15:00 +31°C° 0 mm 2 mps 760 mmHg 23%
    16:00 +30°C° 0 mm 2 mps 760 mmHg 26%
    17:00 +28°C° 0 mm 2 mps 760 mmHg 29%
    18:00 +27°C° 0 mm 2 mps 760 mmHg 32%
    19:00 +26°C° 0 mm 2 mps 760 mmHg 34%
    20:00 +25°C° 0 mm 2 mps 761 mmHg 36%
    21:00 +24°C° 0 mm 1 mps 761 mmHg 38%
    22:00 +23°C° 0 mm 1 mps 761 mmHg 42%
    23:00 +23°C° 0 mm 1 mps 761 mmHg 45%

    23 January, Wednesday

    Time Temperature Precipitation Wind Pressure Humidity
    00:00 +22°C° 0 mm 1 mps 761 mmHg 48%
    01:00 +19°C° 0 mm 0 mps 760 mmHg 50%
    02:00 +19°C° 0 mm 0 mps 760 mmHg 51%
    03:00 +19°C° 0 mm 0 mps 760 mmHg 52%
    04:00 +18°C° 0 mm 0 mps 760 mmHg 52%
    05:00 +20°C° 0 mm 1 mps 760 mmHg 51%
    06:00 +20°C° 0 mm 1 mps 760 mmHg 51%
    07:00 +22°C° 0 mm 1 mps 761 mmHg 47%
    08:00 +23°C° 0 mm 1 mps 762 mmHg 42%
    09:00 +25°C° 0 mm 1 mps 762 mmHg 38%
    10:00 +27°C° 0 mm 1 mps 762 mmHg 33%
    11:00 +29°C° 0 mm 1 mps 762 mmHg 29%
    12:00 +31°C° 0 mm 1 mps 762 mmHg 24%
    13:00 +31°C° 0 mm 1 mps 761 mmHg 23%
    14:00 +32°C° 0 mm 1 mps 760 mmHg 21%
    15:00 +32°C° 0 mm 2 mps 759 mmHg 19%
    16:00 +30°C° 0 mm 2 mps 759 mmHg 22%
    17:00 +29°C° 0 mm 2 mps 759 mmHg 24%
    18:00 +27°C° 0 mm 2 mps 759 mmHg 26%
    19:00 +26°C° 0 mm 2 mps 760 mmHg 29%
    20:00 +25°C° 0 mm 2 mps 760 mmHg 31%
    21:00 +24°C° 0 mm 2 mps 761 mmHg 34%
    22:00 +24°C° 0 mm 1 mps 761 mmHg 36%
    23:00 +23°C° 0 mm 1 mps 761 mmHg 38%

    24 January, Thursday

    Time Temperature Precipitation Wind Pressure Humidity
    00:00 +20°C° 0 mm 0 mps 761 mmHg 40%
    01:00 +20°C° 0 mm 0 mps 760 mmHg 41%
    02:00 +20°C° 0 mm 0 mps 760 mmHg 42%
    03:00 +19°C° 0 mm 0 mps 760 mmHg 43%
    04:00 +21°C° 0 mm 1 mps 760 mmHg 44%
    05:00 +20°C° 0 mm 1 mps 760 mmHg 44%
    06:00 +20°C° 0 mm 1 mps 761 mmHg 45%
    07:00 +22°C° 0 mm 1 mps 761 mmHg 42%
    08:00 +24°C° 0 mm 1 mps 762 mmHg 39%
    09:00 +25°C° 0 mm 1 mps 763 mmHg 35%
    10:00 +27°C° 0 mm 2 mps 763 mmHg 31%
    11:00 +29°C° 0 mm 2 mps 762 mmHg 28%
    12:00 +31°C° 0 mm 2 mps 762 mmHg 24%
    13:00 +32°C° 0 mm 2 mps 761 mmHg 23%
    14:00 +33°C° 0 mm 3 mps 760 mmHg 22%
    15:00 +34°C° 0 mm 3 mps 760 mmHg 22%
    16:00 +31°C° 0 mm 3 mps 760 mmHg 25%
    17:00 +29°C° 0 mm 3 mps 760 mmHg 28%
    18:00 +28°C° 0 mm 2 mps 760 mmHg 32%
    19:00 +27°C° 0 mm 2 mps 760 mmHg 34%
    20:00 +26°C° 0 mm 2 mps 761 mmHg 36%
    21:00 +25°C° 0 mm 2 mps 761 mmHg 38%
    22:00 +24°C° 0 mm 2 mps 761 mmHg 39%
    23:00 +24°C° 0 mm 1 mps 761 mmHg 40%

    25 January, Friday

    Time Temperature Precipitation Wind Pressure Humidity
    00:00 +23°C° 0 mm 1 mps 761 mmHg 42%
    01:00 +23°C° 0 mm 1 mps 760 mmHg 43%
    02:00 +20°C° 0 mm 0 mps 760 mmHg 44%
    03:00 +20°C° 0 mm 0 mps 760 mmHg 45%
    04:00 +21°C° 0 mm 1 mps 760 mmHg 45%
    05:00 +21°C° 0 mm 1 mps 760 mmHg 45%
    06:00 +20°C° 0 mm 2 mps 760 mmHg 45%
    07:00 +23°C° 0 mm 2 mps 761 mmHg 42%
    08:00 +24°C° 0 mm 2 mps 762 mmHg 38%
    09:00 +26°C° 0 mm 3 mps 762 mmHg 35%
    10:00 +28°C° 0 mm 3 mps 762 mmHg 32%
    11:00 +30°C° 0 mm 3 mps 762 mmHg 28%
    12:00 +33°C° 0 mm 4 mps 762 mmHg 25%
    13:00 +33°C° 0 mm 4 mps 761 mmHg 24%
    14:00 +33°C° 0 mm 4 mps 760 mmHg 23%
    15:00 +34°C° 0 mm 4 mps 760 mmHg 22%
    16:00 +31°C° 0 mm 3 mps 760 mmHg 25%
    17:00 +29°C° 0 mm 3 mps 760 mmHg 28%
    18:00 +27°C° 0 mm 3 mps 760 mmHg 31%
    19:00 +27°C° 0 mm 3 mps 760 mmHg 34%
    20:00 +26°C° 0 mm 3 mps 761 mmHg 36%
    21:00 +25°C° 0 mm 3 mps 761 mmHg 38%
    22:00 +24°C° 0 mm 3 mps 761 mmHg 39%
    23:00 +22°C° 0 mm 3 mps 761 mmHg 41%
    Show more